User: anonymous   Login
Location: Caltech
(34.1382°N, 118.1253°W)
Time: 01:31:33
(UTC-07:00)
Language:

Meteor 1-11 Rocket - Orbit

View from above orbital plane
View from above orbital plane
View from above satellite
View from above satellite

Ground track
Ground track

The orbit data is extracted from the following two-line orbital elements,

1  5918U 72022B   17113.84053711 +.00000174 +00000-0 +97288-4 0  9998
2  5918 081.2404 018.4480 0059080 119.1769 241.5329 14.05821803310366
Epoch (UTC): 23 April 2017 20:10:22
Eccentricity: 0.0059080
inclination: 81.2404°
perigee height: 831 km
apogee height: 916 km
right ascension of ascending node: 18.4480°
argument of perigee: 119.1769°
revolutions per day: 14.05821803
mean anomaly at epoch: 241.5329°
orbit number at epoch: 31036

The dashed part of the orbit path shows where the satellite is in the earth's shadow,  

DLR